| time (UTC) | temp C | wind direction | speed KPH | gust KPH | rain 1hr cm | rain 24hr cm | rain mn cm | humidity % | barometer mb |
| 20260508023031 | 6 | 0.0 | 0.0 | 0.00 | 0.00 | 0.00 | 83 | 1016.8 | |
| 20260508022016 | 7 | 0.0 | 0.0 | 0.00 | 0.00 | 0.00 | 80 | 1016.8 | |
| 20260508021025 | 7 | 0.0 | 0.0 | 0.00 | 0.00 | 0.00 | 83 | 1016.7 | |
| 20260508020024 | 7 | 0.0 | 0.0 | 0.00 | 0.00 | 0.00 | 81 | 1016.7 | |
| 20260508015029 | 8 | 0.0 | 0.0 | 0.00 | 0.00 | 0.00 | 79 | 1016.6 | |
| 20260508014033 | 8 | 0.0 | 0.0 | 0.00 | 0.00 | 0.00 | 79 | 1016.4 | |
| 20260508013038 | 8 | 0.0 | 0.0 | 0.00 | 0.00 | 0.00 | 74 | 1016.3 | |
| 20260508012022 | 9 | 0.0 | 0.0 | 0.00 | 0.00 | 0.00 | 71 | 1016.2 | |
| 20260508011026 | 9 | 0.0 | 0.0 | 0.00 | 0.00 | 0.00 | 71 | 1016.0 | |
| 20260508010030 | 9 | 0.0 | 0.0 | 0.00 | 0.00 | 0.00 | 74 | 1015.8 | |
| 20260508005018 | 10 | 0.0 | 0.0 | 0.00 | 0.00 | 0.00 | 72 | 1015.6 | |
| 20260508004020 | 11 | 0.0 | 0.0 | 0.00 | 0.00 | 0.00 | 66 | 1015.6 | |
| 20260508003024 | 11 | 0.0 | 0.0 | 0.00 | 0.00 | 0.00 | 60 | 1015.5 | |
| 20260508002028 | 12 | 197 | 1.6 | 8.0 | 0.00 | 0.00 | 0.00 | 58 | 1015.4 |
| 20260508001026 | 13 | 158 | 1.6 | 9.7 | 0.00 | 0.00 | 0.00 | 54 | 1015.2 |
| 20260508000019 | 13 | 225 | 1.6 | 8.0 | 0.00 | 0.00 | 0.00 | 54 | 1015.1 |
| 20260507235042 | 13 | 338 | 0.0 | 3.2 | 0.00 | 0.00 | 0.00 | 59 | 1014.8 |
| 20260507234020 | 13 | 0.0 | 0.0 | 0.00 | 0.00 | 0.00 | 57 | 1014.7 | |
| 20260507233018 | 14 | 23 | 1.6 | 8.0 | 0.00 | 0.00 | 0.00 | 51 | 1014.6 |
| 20260507232016 | 15 | 90 | 0.0 | 6.4 | 0.00 | 0.00 | 0.00 | 51 | 1014.6 |
| 20260507231020 | 15 | 63 | 1.6 | 6.4 | 0.00 | 0.00 | 0.00 | 50 | 1014.3 |
| 20260507230024 | 16 | 28 | 8.0 | 19.3 | 0.00 | 0.00 | 0.00 | 49 | 1014.3 |
| 20260507225028 | 16 | 194 | 16.1 | 20.9 | 0.00 | 0.00 | 0.00 | 46 | 1014.1 |
| 20260507224052 | 17 | 18 | 8.0 | 12.9 | 0.00 | 0.00 | 0.00 | 46 | 1014.1 |
| 20260507223018 | 17 | 23 | 3.2 | 17.7 | 0.00 | 0.00 | 0.00 | 47 | 1013.9 |
| 20260507222022 | 18 | 270 | 1.6 | 12.9 | 0.00 | 0.00 | 0.00 | 45 | 1013.7 |
| 20260507221026 | 18 | 180 | 11.3 | 17.7 | 0.00 | 0.00 | 0.00 | 43 | 1013.6 |
| 20260507220030 | 18 | 295 | 4.8 | 14.5 | 0.00 | 0.00 | 0.00 | 45 | 1013.3 |
| 20260507215016 | 18 | 343 | 8.0 | 17.7 | 0.00 | 0.00 | 0.00 | 46 | 1013.3 |
| 20260507214021 | 17 | 337 | 12.9 | 19.3 | 0.00 | 0.00 | 0.00 | 48 | 1013.2 |
| 20260507213024 | 17 | 57 | 12.9 | 22.5 | 0.00 | 0.00 | 0.00 | 48 | 1013.2 |
| 20260507212048 | 17 | 15 | 9.7 | 17.7 | 0.00 | 0.00 | 0.00 | 49 | 1013.1 |
| 20260507211032 | 16 | 26 | 9.7 | 19.3 | 0.00 | 0.00 | 0.00 | 50 | 1013.1 |
| 20260507210018 | 17 | 359 | 14.5 | 22.5 | 0.00 | 0.00 | 0.00 | 49 | 1013.0 |
| 20260507205022 | 16 | 344 | 8.0 | 17.7 | 0.00 | 0.00 | 0.00 | 50 | 1012.9 |
| 20260507204026 | 17 | 258 | 6.4 | 12.9 | 0.00 | 0.00 | 0.00 | 49 | 1012.7 |
| 20260507203030 | 18 | 30 | 22.5 | 32.2 | 0.00 | 0.00 | 0.00 | 50 | 1012.5 |
| 20260507202015 | 19 | 30 | 16.1 | 25.7 | 0.00 | 0.00 | 0.00 | 47 | 1012.5 |
| 20260507201020 | 20 | 67 | 6.4 | 19.3 | 0.00 | 0.00 | 0.00 | 45 | |
| 20260507200024 | 19 | 270 | 1.6 | 11.3 | 0.00 | 0.00 | 0.00 | 45 | 1012.9 |
| 20260507195028 | 20 | 317 | 9.7 | 20.9 | 0.00 | 0.00 | 0.00 | 45 | 1012.7 |
| 20260507194032 | 21 | 9 | 11.3 | 24.1 | 0.00 | 0.00 | 0.00 | 45 | 1012.8 |
| 20260507193018 | 21 | 308 | 6.4 | 19.3 | 0.00 | 0.00 | 0.00 | 45 | 1012.9 |
| 20260507192022 | 21 | 323 | 4.8 | 11.3 | 0.00 | 0.00 | 0.00 | 46 | 1013.2 |
| 20260507191046 | 21 | 295 | 3.2 | 8.0 | 0.00 | 0.00 | 0.00 | 46 | 1013.2 |
| 20260507190024 | 21 | 241 | 8.0 | 27.4 | 0.00 | 0.00 | 0.00 | 48 | 1013.4 |
| 20260507185036 | 21 | 208 | 8.0 | 19.3 | 0.00 | 0.00 | 0.00 | 49 | 1013.3 |
| 20260507184020 | 19 | 49 | 8.0 | 22.5 | 0.00 | 0.00 | 0.00 | 52 | 1013.3 |
| 20260507183018 | 18 | 324 | 16.1 | 19.3 | 0.00 | 0.00 | 0.00 | 53 | 1013.4 |
| 20260507182016 | 20 | 332 | 8.0 | 12.9 | 0.00 | 0.00 | 0.00 | 53 | 1013.5 |
| 20260507181032 | 18 | 36 | 8.0 | 12.9 | 0.00 | 0.00 | 0.00 | 55 | 1013.6 |
| 20260507173038 | 17 | 98 | 8.0 | 12.9 | 0.00 | 0.00 | 0.00 | 58 | 1014.3 |
| 20260507172021 | 16 | 186 | 4.8 | 11.3 | 0.00 | 0.00 | 0.00 | 60 | 1014.5 |
| 20260507171021 | 16 | 166 | 1.6 | 11.3 | 0.00 | 0.00 | 0.00 | 59 | 1014.6 |
| 20260507170105 | 16 | 90 | 9.7 | 12.9 | 0.00 | 0.00 | 0.00 | 60 | 1014.7 |
| 20260507165029 | 17 | 230 | 1.6 | 11.3 | 0.00 | 0.00 | 0.00 | 59 | 1014.8 |
| 20260507164035 | 17 | 260 | 4.8 | 11.3 | 0.00 | 0.00 | 0.00 | 59 | 1014.8 |
| 20260507163022 | 18 | 58 | 4.8 | 14.5 | 0.00 | 0.00 | 0.00 | 56 | 1015.0 |
| 20260507162103 | 18 | 1 | 6.4 | 12.9 | 0.00 | 0.00 | 0.00 | 55 | 1015.1 |
| 20260507161047 | 20 | 171 | 3.2 | 9.7 | 0.00 | 0.00 | 0.00 | 53 | 1015.3 |
| 20260507160031 | 19 | 67 | 3.2 | 11.3 | 0.00 | 0.00 | 0.00 | 54 | 1015.4 |
| 20260507155017 | 17 | 177 | 3.2 | 8.0 | 0.00 | 0.00 | 0.00 | 57 | 1015.8 |
| 20260507154022 | 16 | 46 | 8.0 | 12.9 | 0.00 | 0.00 | 0.00 | 63 | 1015.8 |
| 20260507153025 | 15 | 53 | 8.0 | 11.3 | 0.00 | 0.00 | 0.00 | 65 | 1015.8 |
| 20260507152029 | 14 | 76 | 11.3 | 16.1 | 0.00 | 0.00 | 0.00 | 65 | 1015.8 |
| 20260507151036 | 15 | 0 | 4.8 | 12.9 | 0.00 | 0.00 | 0.00 | 67 | 1015.9 |
| 20260507150019 | 14 | 29 | 11.3 | 19.3 | 0.00 | 0.00 | 0.00 | 69 | |
| 20260507145023 | 15 | 83 | 4.8 | 11.3 | 0.00 | 0.00 | 0.00 | 70 | 1016.2 |
| 20260507144047 | 13 | 305 | 1.6 | 6.4 | 0.00 | 0.00 | 0.00 | 74 | 1016.3 |
| 20260507142017 | 12 | 62 | 1.6 | 4.8 | 0.00 | 0.00 | 0.00 | 81 | 1016.8 |
| 20260507141022 | 12 | 37 | 1.6 | 6.4 | 0.00 | 0.00 | 0.00 | 84 | 1016.8 |
| 20260507140025 | 11 | 11 | 1.6 | 3.2 | 0.00 | 0.00 | 0.00 | 85 | 1017.0 |
| 20260507135023 | 11 | 40 | 1.6 | 3.2 | 0.00 | 0.00 | 0.00 | 88 | 1017.0 |
| 20260507134015 | 11 | 338 | 0.0 | 3.2 | 0.00 | 0.00 | 0.00 | 92 | 1017.0 |
| 20260507133019 | 10 | 326 | 1.6 | 3.2 | 0.00 | 0.00 | 0.00 | 94 | 1017.1 |
| 20260507132018 | 10 | 315 | 0.0 | 3.2 | 0.00 | 0.00 | 0.00 | 95 | 1017.2 |
| 20260507131015 | 10 | 45 | 0.0 | 3.2 | 0.00 | 0.00 | 0.00 | 95 | 1017.4 |
| 20260507130031 | 10 | 23 | 0.0 | 3.2 | 0.00 | 0.00 | 0.00 | 96 | 1017.3 |
| 20260507125018 | 10 | 0.0 | 0.0 | 0.00 | 0.00 | 0.00 | 95 | 1017.4 | |
| 20260507124021 | 10 | 0.0 | 0.0 | 0.00 | 0.00 | 0.00 | 96 | 1017.4 | |
| 20260507123025 | 10 | 0.0 | 0.0 | 0.00 | 0.00 | 0.00 | 95 | 1017.3 | |
| 20260507122029 | 10 | 0.0 | 0.0 | 0.00 | 0.00 | 0.00 | 95 | 1017.1 | |
| 20260507121055 | 10 | 0.0 | 0.0 | 0.00 | 0.00 | 0.00 | 95 | 1017.0 | |
| 20260507120039 | 10 | 0.0 | 0.0 | 0.00 | 0.03 | 0.00 | 95 | 1017.0 | |
| 20260507115023 | 10 | 0.0 | 0.0 | 0.00 | 0.05 | 0.00 | 96 | 1016.8 | |
| 20260507114027 | 10 | 55 | 0.0 | 3.2 | 0.00 | 0.10 | 0.00 | 96 | 1016.7 |
| 20260507113051 | 10 | 0.0 | 0.0 | 0.00 | 0.15 | 0.00 | 96 | 1016.7 | |
| 20260507112017 | 10 | 0.0 | 0.0 | 0.00 | 0.15 | 0.00 | 96 | 1016.4 | |
| 20260507111021 | 10 | 0.0 | 0.0 | 0.00 | 0.18 | 0.00 | 97 | 1016.4 | |
| 20260507110025 | 10 | 0.0 | 0.0 | 0.00 | 0.18 | 0.00 | 97 | 1016.2 | |
| 20260507105029 | 10 | 0.0 | 0.0 | 0.00 | 0.20 | 0.00 | 99 | 1016.2 | |
| 20260507104016 | 10 | 0.0 | 0.0 | 0.00 | 0.20 | 0.00 | 99 | 1016.3 | |
| 20260507103039 | 10 | 0.0 | 0.0 | 0.00 | 0.20 | 0.00 | 99 | 1016.4 | |
| 20260507102023 | 10 | 0.0 | 0.0 | 0.00 | 0.20 | 0.00 | 99 | 1016.4 | |
| 20260507101047 | 10 | 0.0 | 0.0 | 0.00 | 0.20 | 0.00 | 98 | 1016.4 | |
| 20260507100031 | 10 | 0.0 | 0.0 | 0.00 | 0.20 | 0.00 | 98 | 1016.2 | |
| 20260507095037 | 10 | 0.0 | 0.0 | 0.00 | 0.20 | 0.00 | 98 | 1016.4 | |
| 20260507092030 | 10 | 47 | 3.2 | 3.2 | 0.00 | 0.20 | 0.00 | 98 | 1016.0 |
| 20260507091015 | 10 | 40 | 3.2 | 3.2 | 0.00 | 0.20 | 0.00 | 98 | 1015.8 |
| 20260507090020 | 10 | 45 | 3.2 | 6.4 | 0.00 | 0.20 | 0.00 | 98 | 1015.9 |
| 20260507085023 | 10 | 0.0 | 0.0 | 0.00 | 0.20 | 0.00 | 98 | 1015.7 | |
| 20260507084021 | 10 | 0 | 0.0 | 3.2 | 0.00 | 0.20 | 0.00 | 98 | 1015.7 |
| 20260507083019 | 10 | 22 | 4.8 | 9.7 | 0.00 | 0.20 | 0.00 | 98 | 1015.6 |
| 20260507082017 | 10 | 359 | 0.0 | 3.2 | 0.00 | 0.20 | 0.00 | 98 | 1015.8 |
| 20260507081015 | 10 | 27 | 3.2 | 9.7 | 0.00 | 0.20 | 0.00 | 98 | 1015.9 |
| 20260507080025 | 11 | 14 | 8.0 | 11.3 | 0.00 | 0.20 | 0.00 | 97 | 1016.2 |
| 20260507075051 | 11 | 30 | 8.0 | 9.7 | 0.00 | 0.20 | 0.00 | 97 | 1016.0 |
| 20260507074055 | 11 | 34 | 9.7 | 12.9 | 0.00 | 0.20 | 0.00 | 97 | 1016.0 |
| 20260507073039 | 11 | 37 | 8.0 | 9.7 | 0.00 | 0.20 | 0.00 | 96 | 1015.8 |
| 20260507072023 | 11 | 37 | 9.7 | 11.3 | 0.00 | 0.20 | 0.00 | 96 | 1015.8 |
| 20260507071027 | 11 | 35 | 9.7 | 12.9 | 0.00 | 0.20 | 0.00 | 96 | 1015.5 |
| 20260507070032 | 12 | 28 | 9.7 | 16.1 | 0.00 | 0.20 | 0.00 | 96 | 1015.5 |
| 20260507065017 | 12 | 23 | 11.3 | 12.9 | 0.00 | 0.20 | 0.00 | 96 | 1015.3 |
| 20260507064021 | 12 | 40 | 12.9 | 17.7 | 0.00 | 0.20 | 0.00 | 95 | 1015.3 |
| 20260507063025 | 12 | 47 | 14.5 | 19.3 | 0.00 | 0.20 | 0.00 | 94 | 1015.3 |
| 20260507062029 | 13 | 36 | 12.9 | 16.1 | 0.00 | 0.20 | 0.00 | 94 | 1015.4 |
| 20260507061015 | 13 | 30 | 12.9 | 16.1 | 0.00 | 0.20 | 0.00 | 93 | 1015.4 |
| 20260507060019 | 13 | 44 | 11.3 | 14.5 | 0.00 | 0.20 | 0.00 | 93 | 1015.4 |
| 20260507055025 | 13 | 57 | 9.7 | 14.5 | 0.00 | 0.20 | 0.00 | 93 | 1015.8 |
| 20260507054029 | 14 | 49 | 9.7 | 14.5 | 0.00 | 0.20 | 0.00 | 93 | 1015.6 |
| 20260507053031 | 14 | 41 | 9.7 | 12.9 | 0.00 | 0.20 | 0.00 | 93 | 1015.6 |
| 20260507052017 | 14 | 26 | 11.3 | 14.5 | 0.00 | 0.20 | 0.00 | 92 | 1015.6 |
| 20260507051041 | 15 | 30 | 9.7 | 14.5 | 0.00 | 0.20 | 0.00 | 92 | 1015.3 |
| 20260507050025 | 15 | 45 | 0.0 | 3.2 | 0.00 | 0.20 | 0.00 | 92 | 1015.3 |
| 20260507045029 | 15 | 51 | 11.3 | 14.5 | 0.00 | 0.20 | 0.00 | 92 | 1015.2 |
| 20260507044016 | 15 | 42 | 8.0 | 12.9 | 0.00 | 0.20 | 0.00 | 92 | 1015.1 |
| 20260507043019 | 15 | 0.0 | 0.0 | 0.00 | 0.20 | 0.00 | 94 | ||
| 20260507042024 | 15 | 41 | 8.0 | 9.7 | 0.00 | 0.20 | 0.00 | 94 | 1014.8 |
| 20260507041027 | 15 | 0.0 | 0.0 | 0.00 | 0.20 | 0.00 | 97 | 1014.3 | |
| 20260507040045 | 15 | 0.0 | 0.0 | 0.00 | 0.20 | 0.00 | 97 | 1013.9 | |
| 20260507035018 | 15 | 0.0 | 0.0 | 0.00 | 0.20 | 0.20 | 97 | 1014.9 | |
| 20260507034021 | 15 | 0.0 | 0.0 | 0.00 | 0.20 | 0.20 | 95 | 1015.5 | |
| 20260507033040 | 15 | 0.0 | 0.0 | 0.00 | 0.20 | 0.20 | 96 | 1015.9 | |
| 20260507032018 | 15 | 0.0 | 0.0 | 0.00 | 0.20 | 0.20 | 93 | 1015.7 | |
| 20260507031015 | 16 | 0.0 | 0.0 | 0.00 | 0.20 | 0.20 | 92 | 1015.7 | |
| 20260507030021 | 16 | 0.0 | 0.0 | 0.00 | 0.20 | 0.20 | 91 | 1015.2 | |
| 20260507025024 | 16 | 0.0 | 0.0 | 0.00 | 0.20 | 0.20 | 89 | 1015.1 | |
| 20260507024028 | 16 | 0.0 | 0.0 | 0.00 | 0.20 | 0.20 | 88 | 1015.3 |